Location: Miles
(41.4492°N, 81.6087°W)
Time: 18:23:01
(UTC+00:00)

Transit 2A - Pass Details

Date: 19 September 2024
Orbit: 590 x 960 km, 66.7° (Epoch: 05 October)

Event Time Altitude Azimuth Distance (km) Brightness Sun altitude
Rises 07:35:08 0° 332° (NNW) 3,632 9.7 -37.5°
Reaches altitude 10° 07:37:48 10° 335° (NNW) 2,661 8.9 -37.1°
Enters shadow 07:38:57 16° 338° (NNW) 2,249 8.6 -37.0°
Maximum altitude 07:43:59 63° 56° (NE) 996 - -36.3°
Drops below altitude 10° 07:49:39 10° 138° (SE) 2,450 - -35.5°
Sets 07:52:01 0° 141° (SE) 3,325 - -35.2°
